N9AAA Weather Reports


Display with metric or nautical units.
time (UTC)temp
F
wind
direction
speed
MPH
gust
MPH
rain 1hr
in
rain 24hr
in
rain mn
in
humidity
%
barometer
mb
20260906140054 68 73 0.0 2.0 0.00 0.00 0.00 96 1019.9
20260906135536 67 0 0.0 2.0 0.00 0.00 0.00 97 1019.8
20260906135040 67 0 0.0 2.0 0.00 0.00 0.00 97 1020.0
20260906134558 66 0 0.0 2.0 0.00 0.00 0.00 97 1019.9
20260906134036 66 0 0.0 2.0 0.00 0.00 0.00 97 1019.9
20260906133541 66 38 0.0 2.0 0.00 0.00 0.00 97 1019.9
20260906133059 66 40 0.0 2.0 0.00 0.00 0.00 97 1020.0
20260906132540 65 0 0.0 2.0 0.00 0.00 0.00 97 1020.1
20260906132036 65 0 0.0 2.0 0.00 0.00 0.00 97 1020.1
20260906131557 65 0 0.0 2.0 0.00 0.00 0.00 97 1020.1
20260906131037 65 352 0.0 2.0 0.00 0.00 0.00 97 1020.0
20260906130536 64 0 0.0 4.0 0.00 0.00 0.00 97 1019.9
20260906130053 64 57 1.0 4.0 0.00 0.00 0.00 97 1020.0
20260906125540 64 0 0.0 3.0 0.00 0.00 0.00 97 1020.0
20260906125040 64 0 0.0 3.0 0.00 0.00 0.00 97 1019.9
20260906124555 64 67 0.0 3.0 0.00 0.00 0.00 97 1019.8
20260906124039 63 0 0.0 2.0 0.00 0.00 0.00 97 1019.7
20260906123538 63 0 0.0 2.0 0.00 0.00 0.00 96 1019.6
20260906123134 63 0 0.0 2.0 0.00 0.00 0.00 97 1019.5
20260906122536 63 0 0.0 4.0 0.00 0.00 0.00 97 1019.5
20260906122036 63 0 0.0 4.0 0.00 0.00 0.00 97 1019.6
20260906121554 63 83 1.0 3.0 0.00 0.00 0.00 97 1019.5
20260906121036 62 78 0.0 2.0 0.00 0.00 0.00 97 1019.4
20260906120537 62 65 0.0 2.0 0.00 0.00 0.00 97 1019.3
20260906120050 62 0 0.0 2.0 0.00 0.00 0.00 97 1019.3
20260906115538 62 0 0.0 2.0 0.00 0.00 0.00 96 1019.3
20260906115037 62 0 0.0 0.0 0.00 0.00 0.00 96 1019.1
20260906114546 62 0 0.0 0.0 0.00 0.00 0.00 96 1018.9
20260906114038 62 0 0.0 0.0 0.00 0.00 0.00 96 1018.9
20260906113535 62 0 0.0 0.0 0.00 0.00 0.00 96 1018.8
20260906113054 62 0 0.0 0.0 0.00 0.00 0.00 96 1018.7
20260906112537 62 0 0.0 0.0 0.00 0.00 0.00 96 1018.7
20260906112036 62 0 0.0 0.0 0.00 0.00 0.00 96 1018.7
20260906111550 62 0 0.0 0.0 0.00 0.00 0.00 96 1018.7
20260906111039 62 0 0.0 0.0 0.00 0.00 0.00 96 1018.7
20260906110540 62 0 0.0 0.0 0.00 0.00 0.00 96 1018.6
20260906110047 63 0 0.0 0.0 0.00 0.00 0.00 96 1018.7
20260906105539 63 0 0.0 1.0 0.00 0.00 0.00 96 1018.7
20260906105036 63 0 0.0 1.0 0.00 0.00 0.00 96 1018.6
20260906104557 63 0 0.0 1.0 0.00 0.00 0.00 96 1018.6
20260906104038 63 0 0.0 1.0 0.00 0.00 0.00 96 1018.6
20260906103536 63 0 0.0 1.0 0.00 0.00 0.00 96 1018.4
20260906103056 63 0 0.0 1.0 0.00 0.00 0.00 96 1018.5
20260906102539 63 59 0.0 2.0 0.00 0.00 0.00 96 1018.6
20260906102039 63 0 0.0 2.0 0.00 0.00 0.00 96 1018.5
20260906101553 63 62 0.0 2.0 0.00 0.00 0.00 96 1018.5
20260906101039 63 0 0.0 2.0 0.00 0.00 0.00 96 1018.5
20260906100544 63 46 0.0 2.0 0.00 0.00 0.00 96 1018.6
20260906100046 63 0 0.0 1.0 0.00 0.00 0.00 96 1018.4
20260906095538 63 71 0.0 1.0 0.00 0.00 0.00 96 1018.5
20260906095039 63 0 0.0 2.0 0.00 0.00 0.00 96 1018.5
20260906094606 63 0 0.0 2.0 0.00 0.00 0.00 96 1018.6
20260906094039 63 0 0.0 2.0 0.00 0.00 0.00 95 1018.6
20260906093540 63 12 0.0 2.0 0.00 0.00 0.00 95 1018.6
20260906093057 63 0 0.0 2.0 0.00 0.00 0.00 95 1018.4
20260906092539 63 0 0.0 2.0 0.00 0.00 0.00 95 1018.3
20260906092039 63 0 0.0 2.0 0.00 0.00 0.00 95 1018.2
20260906091602 63 0 0.0 2.0 0.00 0.00 0.00 95 1018.2
20260906091039 63 0 0.0 3.0 0.00 0.00 0.00 95 1018.3
20260906090539 63 0 0.0 3.0 0.00 0.00 0.00 95 1018.2
20260906090049 63 0 0.0 3.0 0.00 0.00 0.00 95 1018.3
20260906085542 63 0 0.0 2.0 0.00 0.00 0.00 95 1018.3
20260906085041 63 0 0.0 3.0 0.00 0.00 0.00 95 1018.3
20260906084558 63 65 0.0 3.0 0.00 0.00 0.00 95 1018.2
20260906084041 63 0 0.0 2.0 0.00 0.00 0.00 95 1018.1
20260906083539 64 64 0.0 2.0 0.00 0.00 0.00 95 1018.2
20260906083053 64 0 0.0 2.0 0.00 0.00 0.00 95 1018.2
20260906082539 64 0 0.0 0.0 0.00 0.00 0.00 95 1018.1
20260906082043 64 0 0.0 0.0 0.00 0.00 0.00 95 1018.2
20260906081551 64 0 0.0 0.0 0.00 0.00 0.00 95 1018.2
20260906081036 64 0 0.0 0.0 0.00 0.00 0.00 95 1018.1
20260906080539 64 0 0.0 0.0 0.00 0.00 0.00 95 1018.2
20260906080048 64 0 0.0 0.0 0.00 0.00 0.00 95 1018.1
20260906075537 64 0 0.0 0.0 0.00 0.00 0.00 95 1018.1
20260906075036 64 0 0.0 0.0 0.00 0.00 0.00 95 1018.1
20260906074556 64 0 0.0 0.0 0.00 0.00 0.00 95 1018.2
20260906074037 64 0 0.0 0.0 0.00 0.00 0.00 95 1018.2
20260906073536 64 0 0.0 2.0 0.00 0.00 0.00 95 1018.1
20260906073057 64 0 0.0 2.0 0.00 0.00 0.00 95 1018.2
20260906072535 64 0 0.0 2.0 0.00 0.00 0.00 95 1018.2
20260906072037 64 0 0.0 1.0 0.00 0.00 0.00 95 1018.3
20260906071552 64 0 0.0 0.0 0.00 0.00 0.00 95 1018.2
20260906071037 64 0 0.0 1.0 0.00 0.00 0.00 95 1018.4
20260906070536 64 0 0.0 1.0 0.00 0.00 0.00 95 1018.3
20260906070101 64 69 0.0 1.0 0.00 0.00 0.00 95 1018.3
20260906065539 64 0 0.0 1.0 0.00 0.00 0.00 95 1018.4
20260906065038 64 0 0.0 1.0 0.00 0.00 0.00 95 1018.4
20260906064554 65 0 0.0 1.0 0.00 0.00 0.00 95 1018.4
20260906064038 65 0 0.0 1.0 0.00 0.00 0.00 95 1018.4
20260906063537 65 0 0.0 1.0 0.00 0.00 0.00 95 1018.4
20260906063100 65 0 0.0 1.0 0.00 0.00 0.00 95 1018.5
20260906062539 65 0 0.0 1.0 0.00 0.00 0.00 95 1018.6
20260906062039 65 0 0.0 1.0 0.00 0.00 0.00 95 1018.5
20260906061555 65 0 0.0 1.0 0.00 0.00 0.00 95 1018.5
20260906061038 65 0 0.0 0.0 0.00 0.00 0.00 95 1018.5
20260906060537 65 0 0.0 0.0 0.00 0.00 0.00 95 1018.4
20260906060056 65 0 0.0 1.0 0.00 0.00 0.00 95 1018.4
20260906055537 65 0 0.0 1.0 0.00 0.00 0.00 95 1018.3
20260906055039 66 0 0.0 1.0 0.00 0.00 0.00 94 1018.3
20260906054550 66 0 0.0 1.0 0.00 0.00 0.00 95 1018.2
20260906054039 66 0 0.0 1.0 0.00 0.00 0.00 95 1018.3
20260906053539 66 0 0.0 1.0 0.00 0.00 0.00 95 1018.3
20260906053106 66 0 0.0 0.0 0.00 0.00 0.00 94 1018.3
20260906052539 66 0 0.0 0.0 0.00 0.00 0.00 94 1018.2
20260906052039 66 0 0.0 0.0 0.00 0.00 0.00 94 1018.3
20260906051559 66 0 0.0 0.0 0.00 0.00 0.00 95 1018.2
20260906051035 66 0 0.0 2.0 0.00 0.00 0.00 95 1018.2
20260906050542 66 0 0.0 2.0 0.00 0.00 0.00 95 1018.1
20260906050055 67 71 0.0 2.0 0.00 0.00 0.00 95 1018.1
20260906045539 66 0 0.0 2.0 0.00 0.00 0.00 95 1018.1
20260906045039 66 0 0.0 2.0 0.00 0.00 0.00 95 1018.0
20260906044548 66 31 0.0 0.0 0.00 0.00 0.00 95 1018.0
20260906044039 67 0 0.0 0.0 0.00 0.00 0.00 94 1018.1
20260906043538 67 0 0.0 0.0 0.00 0.00 0.00 94 1018.0
20260906043101 67 0 0.0 0.0 0.00 0.00 0.00 94 1017.9
20260906042535 67 0 0.0 0.0 0.00 0.00 0.00 94 1017.8
20260906042039 67 0 0.0 0.0 0.00 0.00 0.00 94 1017.7
20260906041559 67 0 0.0 0.0 0.00 0.00 0.00 94 1017.6
20260906041039 67 0 0.0 0.0 0.00 0.00 0.00 94 1017.6
20260906040543 67 0 0.0 0.0 0.00 0.00 0.00 93 1017.5
20260906040050 67 0 0.0 0.0 0.00 0.00 0.00 93 1017.5
20260906035537 67 0 0.0 0.0 0.00 0.00 0.00 93 1017.5
20260906035036 68 0 0.0 0.0 0.00 0.00 0.00 93 1017.5
20260906034601 68 0 0.0 0.0 0.00 0.00 0.00 93 1017.5
20260906034039 68 0 0.0 0.0 0.00 0.00 0.00 93 1017.6
20260906033535 68 0 0.0 0.0 0.00 0.00 0.00 93 1017.7
20260906033108 68 0 0.0 0.0 0.00 0.00 0.00 93 1017.7
20260906032539 68 0 0.0 0.0 0.00 0.00 0.00 93 1017.6
20260906032040 68 0 0.0 0.0 0.00 0.00 0.00 93 1017.6
20260906031547 68 0 0.0 2.0 0.00 0.00 0.00 93 1017.6
20260906031039 68 0 0.0 2.0 0.00 0.00 0.00 93 1017.4
20260906030539 69 80 0.0 2.0 0.00 0.00 0.00 93 1017.4
20260906030056 69 97 0.0 2.0 0.00 0.00 0.00 92 1017.5
20260906025535 69 102 0.0 3.0 0.00 0.00 0.00 92 1017.3
20260906025036 69 0 1.0 3.0 0.00 0.00 0.00 93 1017.2
20260906024557 69 0 1.0 3.0 0.00 0.00 0.00 92 1017.2
20260906024038 69 53 1.0 3.0 0.00 0.00 0.00 92 1017.1
20260906023544 69 107 1.0 3.0 0.00 0.00 0.00 92 1017.0
20260906023053 69 109 1.0 3.0 0.00 0.00 0.00 92 1016.9
20260906022539 69 84 1.0 3.0 0.00 0.00 0.00 92 1016.8
20260906022043 69 107 1.0 3.0 0.00 0.00 0.00 92 1016.7
20260906021605 70 109 1.0 3.0 0.00 0.00 0.00 92 1016.8
20260906021039 70 0 1.0 3.0 0.00 0.00 0.00 92 1016.7
20260906020539 70 115 1.0 2.0 0.00 0.00 0.00 92 1016.7
20260906020106 70 96 1.0 4.0 0.00 0.00 0.00 92 1016.8
20260906015539 70 0 1.0 4.0 0.00 0.00 0.00 91 1016.9
20260906015038 70 105 2.0 4.0 0.00 0.00 0.00 91 1016.7
20260906014556 70 111 1.0 3.0 0.00 0.00 0.00 91 1016.7
20260906014040 71 103 1.0 3.0 0.00 0.00 0.00 91 1016.7
20260906013540 71 123 1.0 3.0 0.00 0.00 0.00 91 1016.7
20260906013110 71 96 1.0 4.0 0.00 0.00 0.00 90 1016.7
20260906012542 71 105 1.0 4.0 0.00 0.00 0.00 90 1016.6
20260906012036 71 113 1.0 4.0 0.00 0.00 0.00 89 1016.5
20260906011605 72 99 1.0 2.0 0.00 0.00 0.00 89 1016.5
20260906011038 72 108 0.0 2.0 0.00 0.00 0.00 88 1016.5
20260906010539 72 108 1.0 2.0 0.00 0.00 0.00 88 1016.6
20260906010059 72 0 0.0 3.0 0.00 0.00 0.00 88 1016.6
20260906005539 73 98 0.0 3.0 0.00 0.00 0.00 87 1016.6
20260906005039 73 98 0.0 3.0 0.00 0.00 0.00 87 1016.5
20260906004556 73 119 0.0 4.0 0.00 0.00 0.00 87 1016.5
20260906004041 73 99 1.0 4.0 0.00 0.00 0.00 86 1016.3
20260906003539 73 0 1.0 5.0 0.00 0.00 0.00 86 1016.3
20260906003103 74 106 1.0 5.0 0.00 0.00 0.00 86 1016.2
20260906002540 74 92 1.0 5.0 0.00 0.00 0.00 86 1016.2
20260906002037 74 121 1.0 3.0 0.00 0.00 0.00 86 1016.2
20260906001555 74 117 1.0 3.0 0.00 0.00 0.00 86 1016.2
20260906001038 75 0 0.0 3.0 0.00 0.00 0.00 86 1016.3
20260906000539 75 110 1.0 3.0 0.00 0.00 0.00 85 1016.3
20260906000059 75 104 1.0 4.0 0.00 0.00 0.00 85 1016.3
20260905235539 75 64 1.0 5.0 0.00 0.00 0.00 84 1016.4
20260905235037 75 0 1.0 5.0 0.00 0.00 0.00 84 1016.5
20260905234551 76 111 1.0 4.0 0.00 0.00 0.00 83 1016.5
20260905234037 76 91 1.0 3.0 0.00 0.00 0.00 83 1016.4
20260905233537 76 92 0.0 6.0 0.00 0.00 0.00 83 1016.4
20260905233057 76 63 2.0 6.0 0.00 0.00 0.00 83 1016.4
20260905232538 77 132 2.0 6.0 0.00 0.00 0.00 82 1016.4
20260905232039 77 0 2.0 6.0 0.00 0.00 0.00 82 1016.2
20260905231554 77 105 1.0 5.0 0.00 0.00 0.00 83 1016.2
20260905231039 77 47 1.0 8.0 0.00 0.00 0.00 82 1016.2
20260905230537 77 115 2.0 8.0 0.00 0.00 0.00 81 1016.1
20260905230051 78 67 2.0 8.0 0.00 0.00 0.00 80 1016.2
20260905225543 78 71 1.0 10.0 0.00 0.00 0.00 80 1016.3
20260905225036 78 131 2.0 10.0 0.00 0.00 0.00 80 1016.1
20260905224556 78 62 3.0 10.0 0.00 0.00 0.00 80 1016.1
20260905224037 79 68 2.0 8.0 0.00 0.00 0.00 80 1015.8
20260905223537 79 70 2.0 8.0 0.00 0.00 0.00 80 1015.8
20260905223134 79 31 3.0 8.0 0.00 0.00 0.00 79 1015.8
20260905222541 79 65 1.0 8.0 0.00 0.00 0.00 79 1015.7
20260905222038 79 37 2.0 8.0 0.00 0.00 0.00 78 1015.8
20260905221552 79 19 2.0 8.0 0.00 0.00 0.00 78 1015.8
20260905221039 80 73 1.0 9.0 0.00 0.00 0.00 78 1015.9
20260905220536 80 92 1.0 10.0 0.00 0.00 0.00 78 1015.8
20260905220059 81 69 4.0 10.0 0.00 0.00 0.00 76 1015.7
20260905215537 81 43 2.0 8.0 0.00 0.00 0.00 76 1015.7
20260905215038 81 96 3.0 8.0 0.00 0.00 0.00 76 1015.7
20260905214555 80 55 1.0 7.0 0.00 0.00 0.00 76 1015.7
20260905214040 81 0 1.0 7.0 0.00 0.00 0.00 76 1015.7
20260905213539 81 65 1.0 8.0 0.00 0.00 0.00 75 1015.7
20260905213050 81 344 2.0 8.0 0.00 0.00 0.00 77 1015.7
20260905212537 81 336 2.0 8.0 0.00 0.00 0.00 75 1015.7
20260905212036 81 27 2.0 8.0 0.00 0.00 0.00 77 1015.8
20260905211551 81 76 2.0 9.0 0.00 0.00 0.00 76 1015.8
20260905211037 81 350 3.0 10.0 0.00 0.00 0.00 75 1015.8
20260905210539 81 344 4.0 10.0 0.00 0.00 0.00 76 1015.8
20260905210110 81 32 3.0 10.0 0.00 0.00 0.00 76 1015.8
20260905205539 81 248 3.0 9.0 0.00 0.00 0.00 77 1015.9
20260905205038 81 330 2.0 10.0 0.00 0.00 0.00 79 1016.0
20260905204558 80 290 4.0 10.0 0.00 0.00 0.00 78 1015.8
20260905204036 80 10 3.0 9.0 0.00 0.00 0.00 78 1015.8
20260905203537 80 39 3.0 9.0 0.00 0.00 0.00 79 1015.8
20260905203047 79 315 1.0 9.0 0.00 0.00 0.00 81 1015.8
20260905202536 79 352 4.0 10.0 0.00 0.00 0.00 82 1015.8
20260905202037 78 352 2.0 10.0 0.00 0.00 0.00 82 1015.9
20260905201546 78 30 2.0 10.0 0.00 0.00 0.00 82 1015.9
20260905201039 78 24 1.0 6.0 0.00 0.00 0.00 83 1016.0
20260905200539 78 54 2.0 5.0 0.00 0.00 0.00 81 1016.0
20260905200058 78 61 1.0 5.0 0.00 0.00 0.00 81 1016.0
20260905195540 78 0 1.0 5.0 0.00 0.00 0.00 82 1016.0
20260905195039 78 334 3.0 8.0 0.00 0.00 0.00 82 1016.1
20260905194607 78 23 1.0 8.0 0.00 0.00 0.00 81 1016.0
20260905194039 78 19 2.0 8.0 0.00 0.00 0.00 80 1016.0
20260905193538 78 56 1.0 9.0 0.00 0.00 0.00 81 1016.0
20260905193049 79 28 3.0 9.0 0.00 0.00 0.00 82 1016.0
20260905192540 78 67 1.0 5.0 0.00 0.00 0.00 83 1016.0
20260905192044 78 78 1.0 8.0 0.00 0.00 0.00 83 1016.1
20260905191559 78 61 2.0 8.0 0.00 0.00 0.00 83 1016.2
20260905191039 77 80 2.0 6.0 0.00 0.00 0.00 84 1016.3
20260905190543 77 360 1.0 6.0 0.00 0.00 0.00 84 1016.3
20260905190053 77 107 1.0 6.0 0.00 0.00 0.00 84 1016.3
20260905185539 77 85 1.0 7.0 0.00 0.00 0.00 85 1016.2
20260905185039 77 69 2.0 7.0 0.00 0.00 0.00 87 1016.2
20260905184611 76 0 2.0 8.0 0.00 0.00 0.00 87 1016.3
20260905184039 76 5 2.0 8.0 0.00 0.00 0.00 86 1016.4
20260905183540 76 360 1.0 8.0 0.00 0.00 0.00 87 1016.4
20260905183058 76 360 1.0 6.0 0.00 0.00 0.00 87 1016.4
20260905182539 76 124 1.0 6.0 0.00 0.00 0.00 88 1016.4
20260905182039 75 91 1.0 5.0 0.00 0.00 0.00 89 1016.5
20260905181559 75 38 1.0 5.0 0.00 0.00 0.00 90 1016.5
20260905181040 75 352 1.0 4.0 0.00 0.00 0.00 91 1016.5
20260905180539 74 323 1.0 8.0 0.00 0.00 0.00 91 1016.5
20260905180051 74 329 1.0 8.0 0.00 0.00 0.00 91 1016.6
20260905175539 74 331 1.0 4.0 0.00 0.00 0.00 91 1016.6
20260905175039 74 20 1.0 4.0 0.00 0.00 0.00 91 1016.6
20260905174547 74 38 1.0 4.0 0.00 0.00 0.00 91 1016.7
20260905174036 74 63 1.0 5.0 0.00 0.00 0.00 91 1016.6
20260905173536 74 112 0.0 5.0 0.00 0.00 0.00 92 1016.7
20260905173101 74 114 1.0 4.0 0.00 0.00 0.00 91 1016.7
20260905172540 74 65 2.0 5.0 0.00 0.00 0.00 91 1016.8
20260905172041 74 0 1.0 5.0 0.00 0.00 0.00 91 1016.7
20260905171555 74 34 2.0 5.0 0.00 0.00 0.00 91 1016.7
20260905171039 74 0 1.0 7.0 0.00 0.00 0.00 92 1016.7
20260905170539 74 72 0.0 7.0 0.00 0.00 0.00 92 1016.7
20260905170058 74 0 0.0 6.0 0.00 0.00 0.00 92 1016.7
20260905165537 74 0 1.0 6.0 0.00 0.00 0.00 92 1016.7
20260905165036 74 38 0.0 4.0 0.00 0.00 0.00 92 1016.8
20260905164556 74 71 1.0 4.0 0.00 0.00 0.00 92 1016.7
20260905164040 73 360 0.0 4.0 0.00 0.00 0.00 92 1016.7
20260905163536 73 0 0.0 3.0 0.00 0.00 0.00 92 1016.6
20260905163058 73 67 1.0 4.0 0.00 0.00 0.00 92 1016.6
20260905162540 73 115 1.0 4.0 0.00 0.00 0.00 92 1016.6
20260905162038 73 325 0.0 7.0 0.00 0.00 0.00 92 1016.6
20260905161548 73 26 1.0 7.0 0.00 0.00 0.00 92 1016.6
20260905161036 73 117 0.0 4.0 0.00 0.00 0.00 93 1016.5
20260905160540 73 101 1.0 4.0 0.00 0.00 0.00 93 1016.5
20260905160056 73 86 0.0 3.0 0.00 0.00 0.00 93 1016.6
20260905155540 73 117 0.0 3.0 0.00 0.02 0.00 93 1016.5
20260905155039 73 16 1.0 3.0 0.00 0.02 0.00 93 1016.4
20260905154613 73 83 0.0 5.0 0.00 0.02 0.00 93 1016.4
20260905154039 73 107 1.0 5.0 0.00 0.02 0.00 93 1016.4
20260905153543 73 74 1.0 5.0 0.00 0.02 0.00 93 1016.4
20260905153052 73 32 1.0 5.0 0.00 0.02 0.00 94 1016.5
20260905152539 72 64 0.0 5.0 0.00 0.02 0.00 94 1016.4
20260905152043 72 92 2.0 5.0 0.00 0.02 0.00 94 1016.4
20260905151550 72 0 1.0 5.0 0.00 0.02 0.00 94 1016.3
20260905151038 72 0 0.0 4.0 0.00 0.02 0.00 95 1016.3
20260905150540 72 63 0.0 5.0 0.00 0.02 0.00 95 1016.2
20260905150055 72 86 1.0 5.0 0.00 0.02 0.00 95 1016.2
20260905145539 72 62 0.0 3.0 0.00 0.03 0.00 94 1016.1
20260905145036 72 0 1.0 4.0 0.00 0.03 0.00 95 1015.9
20260905144557 72 113 1.0 4.0 0.00 0.03 0.00 95 1015.9
20260905144042 71 107 2.0 4.0 0.00 0.03 0.00 95 1015.8
20260905143540 71 98 0.0 2.0 0.00 0.03 0.00 96 1015.8
20260905143052 71 71 0.0 3.0 0.00 0.03 0.00 96 1015.8
20260905142539 71 85 1.0 3.0 0.00 0.03 0.00 95 1015.7
20260905142044 71 98 1.0 4.0 0.00 0.03 0.00 95 1015.8
20260905141557 71 98 1.0 4.0 0.00 0.03 0.00 96 1015.7
20260905141039 71 46 0.0 5.0 0.00 0.03 0.00 96 1015.7
20260905140542 71 107 1.0 5.0 0.00 0.03 0.00 96 1015.5